Weather in Suoyoki

Russia / Republic of Karelia     62°12′00″N   32°36′45″E
temp.,
°C
wind,
m/s
gust,
m/s
humid.,
%
clouds,
%
prec.,
mm/h
press.,
hPa
HPBL,
m
28 february, sun
sun2800:00−5wsw239498 0.0 101561
03:00−6sw259699 0.0 1014121
06:00−5ssw2597100 0.0 1011181
09:00−4ssw2597100 0.1 1012178
12:00−1sw139799 0.3 1012241
15:000w2510092 0.3 1014398
18:00+1wnw3996100 0.0 1015416
21:00−3w239677 0.0 101657
1 march, mon
mon100:00−4wsw389730 0.0 1015176
03:00−1w499739 0.0 1015419
06:00+1w41097100 0.0 1013528
09:00+1w51294100 0.0 1011690
12:00+2w51396100 0.0 1009656
15:00+1w61399100 0.2 1008822
18:00+1wnw51292100 0.2 1006803
21:000wnw5129794 1.0 1005783
2 march, tue
tue200:00−1wnw5148654 0.1 1004760
03:00−2wnw6158232 0.1 1005926
06:00−2nw515826 0.0 10051059
09:00−3nw6158032 0.0 10071102
12:00−1nnw613765 0.0 10091099
15:00−1nnw5118026 0.0 10111292
18:00−3nw3128362 0.0 1013376
21:00−4wnw4138736 0.0 1014440
3 march, wed
wed300:00−4nw4119319 0.0 1015379
03:00−6wnw3109425 0.0 1016278
06:00−7wnw39949 0.0 1016265
09:00−7wnw27955 0.0 1017184
12:00−3w37923 0.0 1016338
15:00−1wsw498431 0.0 1013502
18:00−2wsw41187100 0.0 1009521
21:00−1wsw61494100 0.3 1004813
4 march, thu
thu400:00+1w61497100 0.2 1000954
03:00+1w71397100 0.4 9961041
06:00−1wnw61286100 2.8 994922
09:00−5wnw6158483 2.8 9951264
12:00−5nnw71379100 0.1 9971264
15:00−4nnw61079100 0.1 10001084
18:00−8nnw4118390 0.0 1002758
21:00−10nw3118857 0.0 1003411